Torna al catalogo

KINEIS-3E

AttivoComunicazioniSSO
NORAD 61222·PAYLOAD·🇫🇷 France

Lanciato Sep 20, 2024 da Rocket Lab Launch Complex 1

Loading…

Prossimi Passaggi (prossime 24 ore)

TLE

AggiornatoSource: Space-Track

Epoca: Sep 14, 2026, 05:07 UTC

1 61222U 24172C   26257.21376119  .00001278  00000-0  20980-3 0  9991
2 61222  98.0405 346.1459 0001234 120.9921 239.1408 14.72372561106458

Traccia KINEIS-3E in tempo reale con AllMySat

Download on the App Store